#timestamp,LO_Frequency,Hit,StdDev 
1708801215.7,286046999.8,N
1708801235.5,286046998.4,N
1708801255.3,286046997.2,N
1708801275.2,286046996.1,N
1708801295.0,286046993.9,N
1708801295.9,286046993.9,N
1708801315.8,286046993.4,N
1708801335.6,286046994.5,N
1708801355.4,286046995.5,N
1708801375.3,286046995.1,N
1708801395.1,286046995.6,N
1708801415.8,286046995.1,N
1708801435.7,286046997.5,N
1708801455.5,286046997.4,N
1708801475.4,286046997.1,N
1708801495.2,286046996.3,N
1708801515.0,286046993.2,N
1708801515.9,286046993.2,N
1708801535.8,286046993.1,N
1708801555.6,286046994.6,N
1708801575.4,286046996.2,N
1708801595.3,286046994.5,N
1708801615.1,286046993.4,N
1708801635.9,286046994.0,N
1708801655.7,286046994.5,N
1708801675.5,286046992.4,N
1708801695.4,286046990.2,Y
1708801715.2,286046993.5,P
1708801735.0,286046994.2,P
1708801736.0,286046994.2,P
1708801755.8,286046994.1,Y
1708801775.6,286046999.6,P
1708801795.5,286047000.5,N
1708801815.3,286046998.9,N
1708801835.1,286046999.7,N
1708801855.9,286047001.7,N
1708801875.7,286047002.3,N
1708801895.6,286046998.4,N
1708801915.4,286046996.8,N
1708801935.2,286046999.2,N
1708801955.1,286046996.7,N
1708801956.0,286046996.7,N
1708801975.8,286046997.3,N
1708801995.6,286046996.9,N
1708802015.5,286046998.3,N
1708802035.3,286047001.2,N
1708802055.1,286047001.9,N
1708802075.9,286047004.8,N
1708802095.7,286047003.2,N
1708802115.6,286047007.9,Y
1708802135.4,286047007.8,P
1708802155.2,286047008.9,N
1708802175.1,286047012.2,N
1708802176.0,286047012.2,N
1708802195.8,286047013.0,N
1708802215.7,286047016.6,Y
1708802235.5,286047010.3,P
1708802255.3,286047011.3,P
1708802275.2,286047012.1,P
1708802295.0,286047012.0,Y
1708802295.9,286047012.0,P
1708802315.8,286046998.1,N
1708802335.6,286046998.4,N
1708802355.4,286046999.2,N
1708802375.3,286046997.7,N
1708802395.1,286046994.7,N
1708802415.8,286046993.6,N
1708802435.7,286046994.2,N
1708802455.5,286046990.4,N
1708802475.4,286046992.1,N
1708802495.2,286046993.0,N
1708802515.0,286046991.4,N
1708802515.9,286046991.4,N
1708802535.8,286046990.1,N
1708802555.6,286046992.3,N
1708802575.4,286046988.6,N
1708802595.3,286046987.5,N
1708802615.1,286046986.0,N
1708802635.9,286046986.4,N
1708802655.7,286046983.7,N
1708802675.5,286046985.7,N
1708802695.4,286046987.5,N
1708802715.2,286046990.8,N
1708802735.0,286046989.2,N
1708802735.9,286046989.2,N
1708802755.8,286046991.0,N
1708802775.6,286046988.9,N
1708802795.5,286046989.4,N
1708802815.3,286046990.3,N
1708802835.1,286046988.5,N
1708802855.9,286046989.7,N
1708802875.7,286046985.6,Y
1708802895.6,286046996.2,P
1708802915.4,286046994.0,N
1708802935.2,286046991.7,P
1708802955.1,286046994.3,N
1708802956.0,286046994.3,Y
1708802975.8,286046999.1,P
1708802995.6,286046997.0,N
1708803015.5,286046995.5,N
1708803035.3,286046995.9,N
1708803055.2,286046996.2,N
1708803075.9,286046995.0,N
1708803095.7,286046997.6,N
1708803115.6,286046995.3,N
1708803135.4,286046996.8,N
1708803155.2,286046998.9,N
1708803175.1,286046994.9,Y
1708803176.0,286046994.9,P
1708803195.8,286047000.7,N
1708803215.7,286047001.1,N
1708803235.5,286046996.6,N
1708803255.3,286046997.1,N
1708803275.2,286047000.1,N
1708803295.0,286047001.5,N
1708803295.9,286047001.5,N
1708803315.8,286047001.3,N
1708803335.6,286047001.7,N
1708803355.4,286047002.1,N
1708803375.3,286047002.4,N
1708803395.1,286047001.1,N
1708803415.8,286046996.5,N
1708803435.7,286046996.9,N
1708803455.5,286047002.7,N
1708803475.3,286047001.3,N
1708803495.2,286047004.0,N
1708803515.0,286047002.2,N
1708803515.9,286047002.2,N
1708803535.8,286047002.4,N
1708803555.6,286047002.6,N
1708803575.4,286047003.0,N
1708803595.3,286047004.3,N
1708803615.1,286047001.9,N
1708803635.8,286047004.4,N
1708803655.7,286047004.3,N
1708803675.5,286047001.3,N
1708803695.3,286047001.8,N
1708803715.2,286046999.7,N
1708803735.0,286047001.0,N
1708803735.9,286047001.0,N
1708803755.8,286047002.5,N
1708803775.6,286047001.0,N
1708803795.4,286047001.2,N
1708803815.3,286047000.0,N
1708803835.1,286047000.4,N
1708803855.8,286046999.9,N
1708803875.7,286047001.2,N
1708803895.5,286047000.0,N
1708803915.4,286047000.1,N
1708803935.2,286047000.4,N
1708803955.0,286047000.6,N
1708803955.9,286047000.6,N
1708803975.8,286047004.3,N
1708803995.6,286047006.0,Y
1708804015.5,286047005.1,P
1708804035.3,286047005.8,P
1708804055.1,286047005.1,N
1708804075.9,286047004.0,N
1708804095.7,286047003.0,N
1708804115.6,286047005.4,Y
1708804135.4,286047002.1,P
1708804155.2,286047000.0,N
1708804175.1,286046999.7,N
1708804176.0,286046999.7,N
1708804195.8,286046998.2,N
1708804215.6,286046998.1,N
1708804235.5,286047000.9,N
1708804255.3,286046999.8,N
1708804275.2,286047002.9,N
1708804295.9,286047002.9,N
1708804315.7,286047007.6,Y
1708804335.6,286047002.9,P
1708804355.4,286047004.0,P
1708804375.3,286046999.8,N
1708804395.1,286047003.5,N
1708804396.0,286047003.5,N
1708804415.8,286047007.6,Y
1708804435.7,286047005.3,P
1708804455.5,286047006.8,P
1708804475.4,286047006.4,P
1708804495.2,286047008.6,Y
1708804515.0,286047001.6,P
1708804515.9,286047001.6,N
1708804535.8,286047002.1,N
1708804555.6,286047000.5,N
1708804575.5,286047000.3,N
1708804595.3,286046997.1,N
1708804615.1,286046996.9,N
1708804635.9,286047000.7,N
1708804655.7,286046996.5,N
1708804675.5,286046997.8,N
1708804695.4,286046997.5,N
1708804715.2,286046997.3,N
1708804735.0,286046998.0,N
1708804735.9,286046998.0,N
1708804755.8,286046995.7,N
1708804775.6,286046993.4,N
1708804795.5,286046996.1,N
